TimeEST,TemperatureF,Dew PointF,Humidity,Sea Level PressureIn,VisibilityMPH,Wind Direction,Wind SpeedMPH,Gust SpeedMPH,PrecipitationIn,Events,Conditions,WindDirDegrees,DateUTC
12:52 AM,27.0,19.0,72,30.20,10.0,WSW,13.8,-,N/A,,Overcast,240,2013-01-04 05:52:00
1:52 AM,27.0,19.9,75,30.20,10.0,WSW,16.1,-,N/A,,Overcast,250,2013-01-04 06:52:00
2:52 AM,27.0,19.0,72,30.20,10.0,WSW,15.0,-,N/A,,Overcast,240,2013-01-04 07:52:00
3:49 AM,26.6,17.6,69,30.16,10.0,WSW,15.0,-,N/A,,Mostly Cloudy,240,2013-01-04 08:49:00
3:52 AM,26.1,18.0,71,30.19,10.0,WSW,13.8,-,N/A,,Mostly Cloudy,240,2013-01-04 08:52:00
4:52 AM,23.0,17.1,78,30.19,10.0,WSW,17.3,-,N/A,,Clear,240,2013-01-04 09:52:00
5:15 AM,23.0,17.6,80,30.15,10.0,WSW,17.3,-,N/A,,Mostly Cloudy,240,2013-01-04 10:15:00
5:52 AM,21.9,16.0,78,30.19,10.0,SW,17.3,20.7,N/A,,Scattered Clouds,230,2013-01-04 10:52:00
6:52 AM,19.0,14.0,81,30.20,9.0,WSW,17.3,-,N/A,,Clear,240,2013-01-04 11:52:00
7:52 AM,19.4,12.2,74,30.17,10.0,SW,13.8,-,N/A,,Clear,230,2013-01-04 12:52:00
8:52 AM,19.0,12.9,77,30.20,10.0,SW,20.7,26.5,N/A,,Clear,230,2013-01-04 13:52:00
9:52 AM,19.0,12.0,74,30.21,10.0,WSW,16.1,31.1,N/A,,Clear,240,2013-01-04 14:52:00
10:52 AM,19.9,12.0,71,30.21,10.0,WSW,16.1,26.5,N/A,,Clear,240,2013-01-04 15:52:00
11:52 AM,21.0,12.0,68,30.19,9.0,West,24.2,31.1,N/A,,Clear,260,2013-01-04 16:52:00
12:52 PM,21.9,12.9,68,30.18,10.0,WSW,23.0,27.6,N/A,,Clear,240,2013-01-04 17:52:00
1:52 PM,24.1,14.0,65,30.16,10.0,WSW,20.7,26.5,N/A,,Clear,250,2013-01-04 18:52:00
2:52 PM,25.0,15.1,66,30.15,9.0,SW,19.6,-,N/A,,Clear,230,2013-01-04 19:52:00
3:52 PM,25.0,16.0,69,30.14,10.0,SW,20.7,29.9,N/A,,Clear,230,2013-01-04 20:52:00
4:52 PM,24.1,15.1,69,30.16,9.0,SW,20.7,32.2,N/A,,Clear,230,2013-01-04 21:52:00
5:52 PM,23.0,16.0,74,30.17,10.0,WSW,19.6,27.6,N/A,,Clear,240,2013-01-04 22:52:00
6:52 PM,23.0,16.0,74,30.20,10.0,WSW,17.3,20.7,N/A,,Clear,240,2013-01-04 23:52:00
7:52 PM,23.0,16.0,74,30.22,10.0,SW,11.5,20.7,N/A,,Clear,230,2013-01-05 00:52:00
8:52 PM,23.0,17.1,78,30.23,10.0,SW,12.7,-,N/A,,Clear,230,2013-01-05 01:52:00
9:52 PM,23.0,17.1,78,30.23,10.0,WSW,16.1,-,N/A,,Clear,240,2013-01-05 02:52:00
10:52 PM,23.0,17.1,78,30.24,9.0,WSW,13.8,-,N/A,,Clear,240,2013-01-05 03:52:00
11:52 PM,23.0,17.1,78,30.25,9.0,SW,12.7,-,N/A,,Clear,230,2013-01-05 04:52:00